Back to catalog

DELTA 1 DEB

AliveSSO
NORAD 12256·DEBRIS·🇺🇸 United States

Launched Mar 5, 1978 from Vandenberg Space Force Base

Loading…

Next Passes (next 24 hours)

TLE

FreshSource: Space-Track

Epoch: Sep 13, 2026, 15:40 UTC

1 12256U 78026CZ  26256.65341994  .00001075  00000-0  48428-3 0  9993
2 12256  99.0620 320.8997 0082772  49.2749 311.5578 14.22630203325736

Track DELTA 1 DEB in real time with AllMySat

Download on the App Store